Glendale Luke AFB, AZ

8:40 AM MST on November 17, 2019 (GMT -0700)
Luke Air Force Base

Weather History for KLUF - September, 2019

Change the Weather History Date:

Tuesday, September 3, 2019

  Actual Average Record
Temperature  
Mean Temperature 97 °F -  
Max Temperature 109 °F 105 °F 114 °F (1945)
Min Temperature 85 °F 73 °F 60 °F (1946)
Cooling Degree Days 32    
Growing Degree Days 47 (Base 50)    
Moisture  
Dew Point 58 °F    
Average Humidity 29    
Maximum Humidity 50    
Minimum Humidity 14    
Precipitation  
Precipitation 0.00 in - - ()
Sea Level Pressure  
Sea Level Pressure 29.74 in    
Wind  
Wind Speed 7 mph (WSW)    
Max Wind Speed 15 mph    
Max Gust Speed 22 mph    
Visibility 10 miles    
Events      
Averages and records for this station are not official NWS values.
T = Trace of Precipitation, MM = Missing Value Source: NWS Daily Summary

Daily Weather History Graph

Daily Weather History Graph

Search for Another Location

Airport or City:

Astronomy

Sep. 03, 2019 Rise Set
Actual Time 6:04 AM MST 6:52 PM MST
Civil Twilight 5:39 AM MST 7:17 PM MST
Nautical Twilight 5:09 AM MST 7:47 PM MST
Astronomical Twilight 4:38 AM MST 8:18 PM MST
Moon 10:48 AM MST (9/3) 10:06 PM MST (9/3)
Length of Visible Light 13h 38m
Length of Day
12h 47m
Waxing Crescent, 25% of the Moon is Illuminated
Sep 3
Waxing Crescent
Sep 5
First Quarter
Sep 13
Full
Sep 21
Last Quarter
Sep 28
New

Hourly Weather History & Observations

Time (MST) Temp. Heat Index Dew Point Humidity Pressure Visibility Wind Dir Wind Speed Gust Speed Precip Events Conditions
12:58 AM 91.4 °F 91.4 °F 60.6 °F 36% 29.79 in 10.0 mi WSW 6.9 mph - N/A   Clear
1:58 AM 88.9 °F 89.7 °F 62.8 °F 42% 29.79 in 10.0 mi WSW 4.6 mph - N/A   Partly Cloudy
2:58 AM 88.2 °F 89.3 °F 64.0 °F 44% 29.79 in 10.0 mi SW 9.2 mph - N/A   Clear
3:58 AM 87.3 °F 88.9 °F 64.6 °F 47% 29.81 in 10.0 mi SW 9.2 mph - N/A   Clear
4:58 AM 87.1 °F 88.9 °F 64.9 °F 48% 29.81 in 10.0 mi SW 10.4 mph - N/A   Clear
5:58 AM 85.6 °F 87.4 °F 65.3 °F 50% 29.83 in 10.0 mi WSW 4.6 mph - N/A   Clear
6:58 AM 86.0 °F 87.1 °F 63.3 °F 47% 29.85 in 10.0 mi Calm Calm - N/A   Clear
7:58 AM 89.6 °F 89.2 °F 59.9 °F 37% 29.85 in 10.0 mi NE 3.5 mph - N/A   Clear
8:58 AM 92.5 °F 93.3 °F 62.4 °F 37% 29.83 in 10.0 mi NE 4.6 mph - N/A   Clear
9:58 AM 95.9 °F 96.6 °F 62.1 °F 32% 29.83 in 10.0 mi ESE 3.5 mph - N/A   Clear
10:58 AM 98.1 °F 98.1 °F 60.3 °F 28% 29.82 in 10.0 mi Calm Calm - N/A   Clear
11:58 AM 101.1 °F 101.9 °F 59.9 °F 26% 29.78 in 10.0 mi West 8.1 mph - N/A   Clear
12:58 PM 103.1 °F 105.8 °F 62.6 °F 27% 29.76 in 10.0 mi SW 4.6 mph - N/A   Clear
1:58 PM 105.4 °F 106.9 °F 61.2 °F 23% 29.72 in 10.0 mi South 9.2 mph - N/A   Clear
2:58 PM 108.3 °F 108.6 °F 57.0 °F 19% 29.68 in 10.0 mi WSW 3.5 mph - N/A   Clear
3:31 PM 109.4 °F 108.6 °F 55.4 °F 17% 29.66 in 10.0 mi South 15.0 mph 20.7 mph N/A   Clear
3:37 PM 109.4 °F 107.9 °F 53.6 °F 16% 29.66 in 10.0 mi SW 12.7 mph - N/A   Clear
3:47 PM 109.4 °F 108.6 °F 55.4 °F 17% 29.66 in 10.0 mi WSW 13.8 mph - N/A   Clear
3:58 PM 109.6 °F 108.1 °F 53.2 °F 16% 29.66 in 10.0 mi SW 15.0 mph 21.9 mph N/A   Clear
4:58 PM 109.6 °F - 49.6 °F 14% 29.65 in 10.0 mi SW 9.2 mph - N/A   Clear
5:58 PM 108.3 °F - 52.3 °F 16% 29.65 in 10.0 mi WSW 11.5 mph - N/A   Clear
6:58 PM 105.1 °F - 52.9 °F 18% 29.66 in 10.0 mi WSW 11.5 mph - N/A   Clear
7:58 PM 102.6 °F 100.9 °F 53.8 °F 20% 29.67 in 10.0 mi West 11.5 mph - N/A   Partly Cloudy
8:58 PM 98.8 °F - 52.0 °F 21% 29.70 in 10.0 mi NW 5.8 mph - N/A   Clear
9:58 PM 96.4 °F - 52.5 °F 23% 29.70 in 10.0 mi West 5.8 mph - N/A   Clear
10:58 PM 94.1 °F 91.9 °F 54.0 °F 26% 29.71 in 10.0 mi Calm Calm - N/A   Scattered Clouds
11:58 PM 93.9 °F 92.0 °F 54.9 °F 27% 29.71 in 10.0 mi NNE 5.8 mph - N/A   Clear